FW1492 Weather Reports


time (UTC)temp
C
wind
direction
speed
KPH
gust
KPH
rain 1hr
cm
rain 24hr
cm
rain mn
cm
humidity
%
barometer
mb
20260510033000 8 158 0.0 1.6 0.00 0.79 0.79 95 1012.2
20260510031605 8 157 0.0 0.0 0.00 0.79 0.79 95 1012.1
20260510024558 8 157 0.0 3.2 0.00 0.79 0.79 95 1012.2
20260510023059 8 157 0.0 3.2 0.00 0.79 0.79 95 1012.2
20260510021646 9 169 1.6 3.2 0.00 0.79 0.79 95 1012.1
20260510020100 9 162 0.0 3.2 0.00 0.79 0.79 95 1012.2
20260510014600 9 167 0.0 4.8 0.00 0.79 0.79 95 1012.1
20260510013102 9 167 0.0 3.2 0.00 0.79 0.79 95 1012.1
20260510011555 9 171 0.0 3.2 0.00 0.79 0.79 95 1012.1
20260510010059 10 166 0.0 3.2 0.00 0.79 0.79 94 1011.7
20260510004554 10 163 1.6 4.8 0.00 0.79 0.79 94 1011.5
20260510003053 10 166 0.0 3.2 0.00 0.79 0.79 94 1011.3
20260510001553 10 165 0.0 3.2 0.00 0.79 0.79 94 1011.5
20260510000053 10 165 1.6 4.8 0.00 0.79 0.79 94 1011.3
20260509234552 10 163 0.0 4.8 0.00 0.79 0.79 93 1011.2
20260509233050 11 155 0.0 3.2 0.00 0.79 0.79 93 1010.9
20260509231552 11 156 0.0 4.8 0.00 0.79 0.79 93 1011.0
20260509230053 11 156 0.0 4.8 0.00 0.79 0.79 92 1010.9
20260509224549 11 159 0.0 3.2 0.00 0.79 0.79 91 1010.9
20260509223051 11 190 1.6 3.2 0.00 0.79 0.79 93 1011.0
20260509221549 11 248 0.0 1.6 0.00 0.79 0.79 93 1011.3
20260509220049 11 267 0.0 1.6 0.00 0.79 0.79 95 1011.2
20260509214547 10 277 0.0 1.6 0.03 0.79 0.79 94 1011.3
20260509213100 10 258 0.0 1.6 0.03 0.79 0.79 94 1011.4
20260509211544 10 274 0.0 3.2 0.05 0.79 0.79 95 1011.5
20260509210049 10 326 0.0 3.2 0.10 0.79 0.79 95 1011.3
20260509204543 10 306 0.0 3.2 0.10 0.76 0.76 94 1011.4
20260509203042 10 281 0.0 3.2 0.18 0.76 0.76 95 1011.5
20260509201541 10 291 0.0 8.0 0.20 0.71 0.71 94 1011.6
20260509200040 10 285 3.2 9.7 0.20 0.69 0.69 94 1012.0
20260509194551 10 293 1.6 9.7 0.23 0.64 0.64 94 1012.3
20260509193036 10 290 0.0 8.0 0.23 0.58 0.58 94 1012.6
20260509191535 10 287 0.0 9.7 0.25 0.53 0.53 93 1012.6
20260509190037 10 302 1.6 4.8 0.30 0.48 0.48 93 1012.9
20260509184535 10 270 0.0 3.2 0.28 0.41 0.41 93 1012.8
20260509183035 10 122 0.0 3.2 0.25 0.36 0.36 92 1012.7
20260509181531 10 255 0.0 6.4 0.20 0.28 0.28 92 1013.1
20260509180035 11 262 0.0 6.4 0.10 0.18 0.18 91 1013.4
20260509174529 11 238 1.6 6.4 0.05 0.13 0.13 90 1013.2
20260509173031 11 251 0.0 6.4 0.03 0.10 0.10 89 1012.9
20260509171534 11 293 1.6 6.4 0.00 0.08 0.08 87 1013.0
20260509170027 11 272 4.8 8.0 0.00 0.08 0.08 87 1012.9
20260509164526 12 245 3.2 8.0 0.00 0.08 0.08 85 1013.0
20260509163027 12 231 0.0 3.2 0.00 0.08 0.08 87 1012.8
20260509161523 12 219 0.0 1.6 0.03 0.08 0.08 88 1012.8
20260509160023 11 215 1.6 4.8 0.03 0.08 0.08 89 1013.3
20260509154522 11 200 1.6 4.8 0.03 0.08 0.08 89 1013.2
20260509153033 11 231 0.0 4.8 0.03 0.08 0.08 90 1013.2
20260509151520 11 233 1.6 9.7 0.00 0.05 0.05 89 1013.6
20260509150020 11 231 0.0 4.8 0.00 0.05 0.05 89 1013.5
20260509144518 11 253 1.6 8.0 0.00 0.05 0.05 86 1013.5
20260509143019 12 213 1.6 4.8 0.00 0.05 0.05 84 1013.3
20260509141515 12 224 0.0 4.8 0.00 0.05 0.05 86 1013.1
20260509140011 11 184 0.0 3.2 0.00 0.05 0.05 86 1013.0
20260509134508 10 167 0.0 3.2 0.00 0.05 0.05 87 1013.3
20260509133004 10 199 0.0 3.2 0.00 0.05 0.05 87 1013.4
20260509131501 10 146 0.0 3.2 0.00 0.05 0.05 86 1013.5
20260509130100 10 141 0.0 4.8 0.00 0.05 0.05 86 1013.6
20260509124557 9 169 1.6 3.2 0.00 0.05 0.05 86 1013.6
20260509123057 9 161 1.6 3.2 0.00 0.05 0.05 86 1013.7
20260509121556 9 150 1.6 4.8 0.00 0.05 0.05 86 1013.9
20260509120154 9 168 1.6 4.8 0.00 0.05 0.05 85 1013.6
20260509114553 9 163 1.6 4.8 0.00 0.05 0.05 84 1013.4
20260509113053 8 142 0.0 1.6 0.00 0.05 0.05 83 1013.4
20260509111557 8 143 0.0 1.6 0.00 0.05 0.05 82 1013.6
20260509110051 8 151 1.6 3.2 0.00 0.05 0.05 82 1013.9
20260509104554 9 150 1.6 3.2 0.00 0.05 0.05 80 1013.7
20260509103102 9 144 0.0 1.6 0.00 0.05 0.05 79 1013.6
20260509101550 9 144 0.0 1.6 0.00 0.05 0.05 79 1013.4
20260509100049 9 150 0.0 1.6 0.00 0.05 0.05 79 1013.3
20260509094557 9 155 0.0 1.6 0.00 0.05 0.05 77 1013.5
20260509093048 9 155 0.0 1.6 0.00 0.05 0.05 77 1013.5
20260509091552 9 155 0.0 3.2 0.00 0.05 0.05 76 1013.6
20260509090054 9 155 0.0 1.6 0.00 0.05 0.05 76 1013.9
20260509084556 9 155 0.0 1.6 0.00 0.05 0.05 76 1014.0
20260509083052 9 155 1.6 3.2 0.00 0.05 0.05 77 1013.8
20260509081544 9 161 1.6 3.2 0.00 0.05 0.05 77 1014.0
20260509080048 9 158 1.6 3.2 0.00 0.05 0.05 76 1014.0
20260509074602 9 158 1.6 3.2 0.00 0.10 0.05 76 1013.9
20260509073100 9 151 1.6 3.2 0.00 0.10 0.05 77 1014.1
20260509071548 9 150 1.6 3.2 0.00 0.10 0.05 77 1014.1
20260509070044 9 150 0.0 3.2 0.00 0.10 0.05 78 1013.7
20260509064539 9 152 0.0 1.6 0.03 0.10 0.05 78 1013.7
20260509063053 8 155 0.0 1.6 0.03 0.10 0.05 80 1013.8
20260509061537 8 156 0.0 1.6 0.03 0.10 0.05 84 1014.4
20260509060044 8 156 0.0 3.2 0.03 0.10 0.05 83 1014.5
20260509054536 8 157 0.0 3.2 0.00 0.18 0.03 83 1014.7
20260509053049 8 164 1.6 3.2 0.03 0.18 0.03 83 1014.8
20260509051531 8 157 3.2 3.2 0.03 0.18 0.03 82 1014.8
20260509050030 8 152 0.0 3.2 0.03 0.18 0.03 81 1014.5
20260509044526 9 152 0.0 1.6 0.03 0.18 0.03 77 1014.8
20260509043038 9 152 0.0 3.2 0.00 0.15 0.00 76 1014.8
20260509041523 9 161 0.0 3.2 0.00 0.15 0.00 76 1015.0
20260509040021 9 166 1.6 3.2 0.00 0.15 0.00 77 1014.9
20260509034520 9 155 1.6 3.2 0.00 0.15 0.15 76 1014.9